SL-19 R/B

Satellite information

Favourite Embed

Satellite Type and Status

ROCKET BODYIN ORBIT

Key statistics

Satellite SL-19 R/B at a glance.

Uptime

8081

Days in orbit

Revolutions

≈ 14.0

Per day

Orbit

SSO

Sun Synchronous Orbit

Inclination

99.6

Latest

Satellite identification and parameters

Extended collection of information and parameters for SL-19 R/B.

Object identification

Identified? True

Debris? False

Object name: SL-19 R/B

International designator: 2003-050B

Object number (NORAD): 28061

Object ID (CCSDS): 28061

Country: COMMONWEALTH OF INDEPENDENT STATES (CIS)

Current information (Y/N): Y

RCS size: LARGE

Orbital parameters

Period: 103.024 minutes

Inclination: 99.5668 deg

SMA: 7279.786 km

Apoapsis: 1007.739 km

Periapsis: 795.562 km

RAAN: 10.7768 deg

Eccentricy: 0.01457301

Argument of periapsis: 341.7278 deg

Mean anomaly: 17.8679 deg

Mean motion: 13.97735055 rev/day

Mean motion (dot): -0.0000001 rev/day2

B* drag term: 0.000025319606 1/REarth

Two-line elements (TLE)

Creation date: Dec. 12, 2025, 10:14 a.m.

Reference frame: TEME

Reference center: EARTH

Epoch: Dec. 12, 2025, 7:17 a.m. UTC

TLE line 0: 0 SL-19 R/B

TLE line 1: 1 28061U 03050B 25346.30375378 -.00000010 00000-0 25320-4 0 9999

TLE line 2: 2 28061 99.5668 10.7768 0145730 341.7278 17.8679 13.97735055128210

Live tracking on map

Real-time ground track for satellite SL-19 R/B.

In-orbit conjunctions

A list of the most updated potential collisions computed for object SL-19 R/B.

Target Orbit TCA Probability of collision Miss distance Type
THORAD AGENA D DEB SSO 2025-10-23 16:14:50 0.0001646478 285.0 (m) DEBRIS
FENGYUN 1C DEB SSO 2025-06-29 09:30:04 0.000308012 326.0 (m) DEBRIS
COSMOS 1275 DEB LEO 2024-09-30 07:57:11 0.0001785492 174.0 (m) DEBRIS
DMSP 5D-2 F13 DEB SSO 2024-05-29 10:42:32 0.0005299754 142.0 (m) DEBRIS

Associated space launch

SERVIS-1, or Space Environment Reliability Verification Integrated System 1, is a Japanese satellite designed for testing the performance of commercial off-the-shelf products in the space environment.

SL-19 R/B was lifted into orbit during the mission ‘Rokot / Briz-KM | SERVIS-1’, on board a Rokot/Briz-KM space rocket.

The launch took place on Oct. 30, 2003, 1:43 p.m. from 133/3 (133L).

For more information about the launch, click the button.

Launch to space Rokot / Briz-KM | SERVIS-1
Rokot / Briz-KM | SERVIS-1

Agency: N/A

Status: Launch Successful

Launch date: Oct. 30, 2003, 1:43 p.m. UTC

Rocket: Rokot/Briz-KM

Launch pad: 133/3 (133L)

Location: Plesetsk Cosmodrome, Russian Federation

...

Latest news about this satellite

There are no fresh news available about this satellite. Check back as we update our databases every day.


Newsletter sign-up

Weekly statistics, charts and insights to help you stay on top of the space industry.